48 Hour Max Wind (MPH) Per Hour History for Gate City, VA

Daily Weather Archive for Gate City, VA

Today's Weather Summary

Current Weather Observations

Today's Max Wind Per Hour

Yesterday's Max Wind Per Hou


Today's Max Wind Speed Per Hour

 

Yesterday's Max Wind Speed Per Hour

Hour (24)  Reading Date & Time  Max Wind Speed Per Hr
012/3/2021 - 12:53:01 AM0
112/3/2021 - 1:53:01 AM1
212/3/2021 - 2:53:01 AM1
312/3/2021 - 3:53:03 AM1
412/3/2021 - 4:53:03 AM1
512/3/2021 - 5:53:01 AM1
612/3/2021 - 6:53:01 AM1
712/3/2021 - 7:53:02 AM1
812/3/2021 - 8:53:01 AM1
912/3/2021 - 9:53:01 AM1
1012/3/2021 - 10:53:01 AM2
1112/3/2021 - 11:53:01 AM2
1212/3/2021 - 12:53:01 PM4
1312/3/2021 - 1:53:01 PM5
1412/3/2021 - 2:53:01 PM4
1512/3/2021 - 3:53:01 PM4
1612/3/2021 - 4:53:04 PM4
1712/3/2021 - 5:53:04 PM1
1812/3/2021 - 6:53:02 PM0
1912/3/2021 - 7:53:02 PM1
2012/3/2021 - 8:53:01 PM0
2100
2200
2300
 
Hour (24)  Reading Date & Time  Max Wind/Hr
012/2/2021 - 12:53:01 AM1
112/2/2021 - 1:53:01 AM1
212/2/2021 - 2:53:01 AM1
312/2/2021 - 3:53:01 AM1
412/2/2021 - 4:53:01 AM1
512/2/2021 - 5:53:01 AM1
612/2/2021 - 6:53:01 AM1
712/2/2021 - 7:53:01 AM2
812/2/2021 - 8:53:01 AM2
912/2/2021 - 9:53:01 AM2
1012/2/2021 - 10:53:01 AM3
1112/2/2021 - 11:53:01 AM4
1212/2/2021 - 12:53:01 PM5
1312/2/2021 - 1:53:01 PM7
1412/2/2021 - 2:53:01 PM7
1512/2/2021 - 3:53:01 PM6
1612/2/2021 - 4:53:01 PM5
1712/2/2021 - 5:53:01 PM5
1812/2/2021 - 6:53:01 PM5
1912/2/2021 - 7:53:01 PM3
2012/2/2021 - 8:53:01 PM2
2112/2/2021 - 9:53:01 PM1
2212/2/2021 - 10:53:01 PM0
2312/2/2021 - 11:53:01 PM0